星链-1748 (STARLINK-1748 )

导读 | 豆包AI

STARLINK-1748是美国于2020年10月6日发射的SpaceX星链卫星,属于星链互联网项目低轨近地通信卫星星座。该卫星旨在为全球范围内偏远地区及网络基础设施不足区域提供低成本高速宽带互联网接入服务,推动全球互联网连通覆盖。

Basic Information
目录编号:
46570
目录名称:
STARLINK-1748
国际标识:
2020-070AQ
轨道中心:
EARTH
卫星名称:
星链-1748
卫星全名:
星链-1748 (STARLINK-1748 )
卫星状态:
已陨落 最后检测时间 2024-10-18
发射日期:
2020-10-06 UTC
国别 :
美国 (US)
星等 :
--
Orbit Information
数据来源 国际轨道数据
星历时间: 2024-10-19T10:12:23+0800
轨道信息已过期511天
半长轴: 6557.825km
偏心率: 0.0005759
轨道倾角: 52.988°
近地点辐角 265.809°
升交点赤经 132.308°
平近点角 192.120°
近地点: 175.913km
远地点: 183.467km
周期: 88.084分钟
每日圈数: 16.347943
Detailed Information
固有亮度:
5
最大亮度:
2.5
卫星平台:
Starlink V1.0
覆盖范围:
全球
运营商:
太空探索技术公司
运营商所在国:
美国
制造商(研发单位):
太空探索技术公司
制造商所在国:
美国
使用方式:
暂无
Satellite Introduction
星链(Starlink)计划是由太空探索技术公司(SpaceX)提出的一个巨型低轨卫星互联网星座项目,计划在2019年至2024年间在太空搭建由约1.2万颗卫星组成的“星链”网络,其中1584颗将部署在地球上空550千米处的近地轨道,并从2020年开始工作。该卫星仍在工作。